[[{"header":{"parameterUnit":"m.s-1","parameterCategory":1,"la1":30.2991,"la2":30.254,"lo1":-89.0895,"lo2":-89.0444,"dy":0.0017,"dx":0.0017,"nx":28,"ny":28,"refTime":"2024-07-20T09:00:00:Z","depth":0,"parameterNumber":2,"parameterNumberName":"U-component_of_WINDS"},"data":[0,0,0,0,0,0,0,0,0,0,0,0,0,0,0,0,0,0,0,0,0,0,0,0,0,0,0,0,0,0,0,0,0,0,0,0,0,0,0,0,0,0,0,0,0,0,0,0,0,0,0,0,0,0,0,0,0,0,2.9969,2.997,0,3.0091,3.0093,3.0094,3.0068,3.0065,3.0063,3.0061,3.0182,3.0187,3.0192,0,0,0,0,0,0,0,0,0,0,0,0,0,2.9706,2.9711,2.9969,2.997,2.9972,3.0091,3.0093,3.0094,3.0068,3.0065,3.0062,3.006,3.018,3.0186,3.0193,0,0,0,0,0,0,0,0,0,0,0,0,0,2.9823,2.9712,2.9968,2.9973,2.9975,3.0091,3.0093,3.0095,3.0069,3.0065,3.0062,3.0059,3.0178,3.0186,3.0194,3.0311,0,0,3.0218,3.0222,0,0,0,0,0,0,0,0,2.9817,2.9833,2.9971,2.9973,2.9975,3.0061,3.0044,3.0167,3.0069,3.0033,3.0061,3.0057,3.0144,3.0155,3.0185,3.0317,3.0322,3.0219,3.0224,3.0227,3.0229,0,0,0,0,0,0,0,2.9808,2.9827,3.0017,2.9973,2.9976,2.9967,2.998,3.0067,3.0106,3.0036,3.0034,3.0049,3.0144,3.0177,3.0188,3.0324,3.0219,3.0226,3.0231,3.0234,3.0553,3.0557,0,0,0,0,0,0,2.9799,2.9821,3.0013,3.0021,2.9886,2.9974,2.9989,3.0037,3.0105,3.0112,3.0052,3.0048,3.0165,3.0178,3.0192,3.033,3.0227,3.0235,3.0239,3.055,3.0554,3.0558,0,0,0,0,0,0,2.9794,2.9817,3.0008,2.992,2.9944,2.9983,3.0036,3.0041,3.0074,3.0117,3.0123,3.0079,3.0163,3.018,3.0281,3.0334,3.0238,3.0245,3.0545,3.0551,3.0556,3.061,0,0,0,0,0,0,2.9786,2.9815,2.9862,2.9922,2.9949,3.0097,3.004,3.0046,3.0088,3.0083,3.0144,3.0151,3.0162,3.0269,3.0289,3.0343,3.0252,3.0541,3.0548,3.0554,3.0603,3.0617,3.0628,0,0,0,0,0,2.9777,2.9872,2.9864,2.9887,3.0008,3.0101,3.0116,3.0128,3.0093,3.0138,3.0166,3.0149,3.0326,3.028,3.0302,3.0359,3.0537,3.0546,3.0554,3.0598,3.0614,3.0628,0,0,0,0,0,0,2.9816,2.988,2.9872,2.999,3.004,3.0096,3.0154,3.0145,3.0206,3.0198,3.0209,3.0223,3.0325,3.0353,3.03,3.0474,3.0426,3.0439,3.0452,3.0468,3.048,3.0469,3.0258,0,0,0,0,0,2.9839,2.991,2.9961,3.006,3.0086,3.0116,3.0156,3.0161,3.0213,3.0234,3.0269,3.0319,3.0385,3.0428,3.0492,3.0608,3.0619,3.0658,3.067,3.068,3.069,3.0749,3.0766,3.0585,3.0585,3.0585,0,0,2.9885,2.9929,2.9973,3.0069,3.0108,3.0179,3.0134,3.0212,3.0263,3.0245,3.0341,3.0369,3.0425,3.0532,3.0582,3.0559,3.0743,3.0691,3.0698,3.0703,3.076,3.0777,3.0792,3.0591,3.059,3.0589,0,0,3.0005,3.0048,3.0133,3.0173,3.0234,3.0253,3.0273,3.0331,3.0348,3.0445,3.0432,3.0493,3.0608,3.0647,3.0682,3.0815,3.08,3.0836,3.0898,3.0956,3.097,3.0982,3.1026,3.1042,3.0847,3.0847,3.0847,0,3.0055,3.0164,3.0177,3.0255,3.0296,3.0284,3.0368,3.0406,3.0484,3.0511,3.0485,3.0627,3.0664,3.0778,3.0811,3.0841,3.0861,3.0828,3.0967,3.098,3.0992,3.1033,3.105,3.085,3.085,3.085,3.0849,0,3.0219,3.0295,3.0355,3.0431,3.0479,3.056,3.0583,3.063,3.063,3.0651,3.0748,3.0792,3.0862,3.0891,3.0892,3.1004,3.0988,3.0965,3.0916,3.1012,3.1051,3.1068,3.0856,3.0854,3.0853,3.0852,0,0,3.0367,3.0448,3.047,3.0503,3.0568,3.0625,3.0704,3.0774,3.0812,3.0866,3.0929,3.1026,3.1004,3.1044,3.105,3.1101,3.1198,3.107,3.1072,3.1089,3.1319,3.1334,3.1352,3.119,3.1193,3.1195,3.1313,0,3.049,3.0631,3.0644,3.0769,3.0836,3.0825,3.0893,3.0939,3.096,3.1019,3.1042,3.1108,3.1077,3.11,3.115,3.1175,3.1243,3.1168,3.1245,3.1248,3.1228,3.1373,3.139,3.1499,3.1329,3.1332,3.1334,0,3.0653,3.0711,3.0843,3.0896,3.0925,3.0986,3.1049,3.1107,3.1157,3.1169,3.1212,3.121,3.1288,3.1239,3.1344,3.1292,3.1325,3.1342,3.1346,3.1351,3.1294,3.1378,3.1535,3.1549,3.1359,3.1357,3.1355,0,3.0742,3.0854,3.0946,3.0975,3.104,3.1083,3.1112,3.1159,3.1199,3.1255,3.128,3.1343,3.1377,3.1425,3.1438,3.1402,3.1542,3.1495,3.1551,3.155,3.1578,3.1576,3.1738,3.1606,3.1605,3.1605,3.1605,0,3.0876,3.0956,3.0987,3.1043,3.1131,3.1145,3.1231,3.1257,3.1299,3.1358,3.1353,3.1408,3.1425,3.1482,3.1493,3.1576,3.1593,3.1602,3.1603,3.16,3.1598,3.1619,3.161,3.161,3.1609,3.1608,3.1607,0,3.0989,3.1014,3.1113,3.1166,3.1182,3.1244,3.1288,3.1341,3.1361,3.1436,3.1454,3.1485,3.1552,3.1571,3.1652,3.1659,3.1755,3.1752,3.1738,3.1737,3.179,3.1783,3.1969,3.1992,3.1848,3.185,3.1851,0,3.1071,3.1132,3.1192,3.1232,3.1263,3.1327,3.1368,3.1383,3.1425,3.1486,3.1531,3.1597,3.165,3.1757,3.1785,3.1846,3.1841,3.1902,3.185,3.1844,3.1837,3.1832,3.1836,3.1911,3.1912,3.1913,3.1914,0,3.1213,3.1222,3.1282,3.1345,3.1394,3.1445,3.1493,3.1525,3.1547,3.1594,3.1663,3.1705,3.1786,3.185,3.1911,3.1938,3.1929,3.1931,3.1946,3.1942,3.193,3.1933,3.1761,3.1926,3.1925,3.1924,3.1923,3.1923,3.1311,3.1363,3.1413,3.1478,3.1517,3.1561,3.1613,3.1639,3.1697,3.1765,3.1771,3.1844,3.189,3.1971,3.2001,3.2056,3.2038,3.2062,3.2067,3.2071,3.2073,3.1924,3.2068,3.2068,3.2067,3.2067,3.2067,0,3.1448,3.148,3.154,3.1608,3.1659,3.1648,3.1701,3.1743,3.1808,3.1852,3.1905,3.1982,3.2044,3.2077,3.2138,3.2175,3.2172,3.2191,3.2186,3.2191,3.2089,3.2067,3.2192,3.2192,3.2192,3.2192,3.2192,3.2192,3.1526,3.1612,3.1627,3.1731,3.1761,3.1834,3.1864,3.1904,3.1939,3.2026,3.2077,3.2099,3.2138,3.2201,3.2256,3.2264,3.2285,3.2305,3.231,3.2212,3.2199,3.2187,3.2167,3.231,3.231,3.2407,3.2408,3.2409]},{"header":{"parameterUnit":"m.s-1","parameterCategory":1,"la1":30.2991,"la2":30.254,"lo1":-89.0895,"lo2":-89.0444,"dy":0.0017,"dx":0.0017,"nx":28,"ny":28,"refTime":"2024-07-20T09:00:00:Z","depth":0,"parameterNumber":3,"parameterNumberName":"V-component_of_WINDS"},"data":[0,0,0,0,0,0,0,0,0,0,0,0,0,0,0,0,0,0,0,0,0,0,0,0,0,0,0,0,0,0,0,0,0,0,0,0,0,0,0,0,0,0,0,0,0,0,0,0,0,0,0,0,0,0,0,0,0,0,1.6311,1.6312,0,1.636,1.6361,1.6361,1.6329,1.6327,1.6326,1.6325,1.6374,1.6377,1.6379,0,0,0,0,0,0,0,0,0,0,0,0,0,1.6189,1.6191,1.6311,1.6312,1.6313,1.636,1.6361,1.6361,1.6329,1.6327,1.6326,1.6324,1.6373,1.6376,1.6379,0,0,0,0,0,0,0,0,0,0,0,0,0,1.624,1.6192,1.6311,1.6302,1.6302,1.636,1.6361,1.6362,1.633,1.6327,1.6325,1.6323,1.6372,1.6376,1.638,1.6449,0,0,1.6392,1.6394,0,0,0,0,0,0,0,0,1.6237,1.6245,1.6303,1.6303,1.6303,1.6336,1.6336,1.6391,1.633,1.6319,1.6325,1.6322,1.6363,1.6368,1.6382,1.6452,1.6454,1.6393,1.6395,1.6397,1.6398,0,0,0,0,0,0,0,1.6234,1.6243,1.6331,1.6304,1.6304,1.6295,1.63,1.6346,1.6353,1.632,1.6318,1.6324,1.6363,1.6378,1.6383,1.6455,1.6393,1.6396,1.6399,1.64,1.6583,1.6585,0,0,0,0,0,0,1.6231,1.624,1.6329,1.6332,1.6264,1.6299,1.6305,1.6328,1.6352,1.6354,1.6326,1.6322,1.6372,1.6378,1.6384,1.6467,1.6397,1.6401,1.6403,1.658,1.6583,1.6586,0,0,0,0,0,0,1.6229,1.624,1.6327,1.6285,1.6296,1.6304,1.633,1.633,1.6345,1.6357,1.6358,1.634,1.6371,1.6379,1.6433,1.6468,1.6402,1.6406,1.6577,1.6581,1.6584,1.6632,0,0,0,0,0,0,1.6225,1.6239,1.6266,1.6286,1.6298,1.6376,1.6332,1.6332,1.6352,1.6348,1.6371,1.6372,1.637,1.6427,1.6437,1.6472,1.6409,1.6574,1.6579,1.6583,1.6628,1.6637,1.6645,0,0,0,0,0,1.6221,1.6277,1.6267,1.6278,1.6332,1.6378,1.6385,1.6381,1.6355,1.6382,1.6389,1.6372,1.6462,1.6433,1.6444,1.6481,1.6572,1.6578,1.6583,1.6624,1.6635,1.6645,0,0,0,0,0,0,1.6261,1.628,1.6269,1.6334,1.6354,1.6372,1.6406,1.6393,1.6421,1.6416,1.641,1.6415,1.6472,1.6482,1.6449,1.6549,1.6513,1.6521,1.6541,1.6552,1.656,1.6557,1.6413,0,0,0,0,0,1.6277,1.6313,1.6328,1.6383,1.6394,1.6399,1.6418,1.6413,1.6434,1.6443,1.6454,1.6475,1.6508,1.653,1.6562,1.6629,1.6633,1.6659,1.6668,1.6675,1.6682,1.6718,1.6729,1.6604,1.6604,1.6603,0,0,1.6311,1.6326,1.6349,1.6392,1.6407,1.6444,1.6406,1.6447,1.6474,1.6449,1.6501,1.651,1.6533,1.6594,1.6621,1.6604,1.6718,1.6682,1.6688,1.6691,1.6724,1.6736,1.6747,1.6607,1.6607,1.6606,0,0,1.6392,1.6407,1.6455,1.6471,1.6495,1.6497,1.6508,1.6528,1.6533,1.6586,1.6567,1.6599,1.6657,1.6673,1.669,1.6776,1.676,1.6786,1.6832,1.6866,1.6876,1.6885,1.6915,1.6926,1.6793,1.6793,1.6793,0,1.6431,1.6487,1.6481,1.6523,1.6542,1.6521,1.6568,1.6584,1.6617,1.663,1.661,1.6681,1.6695,1.6759,1.678,1.6794,1.6807,1.6783,1.6875,1.6884,1.6892,1.6921,1.6932,1.6796,1.6795,1.6795,1.6795,0,1.6533,1.6572,1.6607,1.6639,1.6662,1.6707,1.6708,1.6731,1.6724,1.6728,1.6781,1.6797,1.683,1.6845,1.6839,1.6908,1.6897,1.6876,1.684,1.6907,1.6934,1.6945,1.68,1.6799,1.6798,1.6797,0,0,1.6641,1.6669,1.6682,1.6696,1.672,1.675,1.6793,1.6826,1.6846,1.6869,1.6905,1.6954,1.6935,1.6953,1.6948,1.6978,1.7045,1.6954,1.6954,1.697,1.7122,1.7137,1.715,1.7034,1.7036,1.7038,1.712,0,1.6723,1.6799,1.6795,1.6866,1.6901,1.6881,1.6918,1.6937,1.6942,1.6972,1.6977,1.7012,1.6984,1.6995,1.7024,1.703,1.7075,1.7024,1.7067,1.7069,1.7062,1.7164,1.7181,1.7257,1.713,1.7132,1.7133,0,1.6829,1.6856,1.693,1.6949,1.6963,1.6997,1.7027,1.7056,1.7076,1.7077,1.7097,1.7087,1.713,1.7093,1.7152,1.7117,1.7134,1.714,1.7143,1.7147,1.7105,1.7171,1.7282,1.7293,1.715,1.7149,1.7148,0,1.69,1.6954,1.7006,1.7018,1.7041,1.7065,1.7076,1.7094,1.7114,1.7139,1.7152,1.7182,1.7199,1.7222,1.722,1.7193,1.7279,1.7242,1.7281,1.7282,1.7301,1.73,1.7416,1.7312,1.7312,1.7311,1.7311,0,1.6992,1.7038,1.7038,1.707,1.7121,1.7115,1.7165,1.7173,1.7189,1.7222,1.7206,1.7237,1.7232,1.7262,1.7261,1.7309,1.7317,1.7319,1.7318,1.732,1.732,1.7332,1.7326,1.7315,1.7314,1.7313,1.7313,0,1.708,1.7081,1.7136,1.7153,1.7158,1.7195,1.7209,1.7239,1.7242,1.7283,1.7292,1.7297,1.7332,1.7332,1.7372,1.7371,1.7431,1.7424,1.7424,1.7423,1.7462,1.7458,1.759,1.7606,1.7491,1.7493,1.7493,0,1.7138,1.7173,1.7194,1.7215,1.7227,1.726,1.728,1.7275,1.7297,1.7322,1.7349,1.7382,1.7409,1.7466,1.7473,1.7503,1.7496,1.754,1.7501,1.7502,1.7497,1.7495,1.7498,1.7548,1.7549,1.755,1.7551,0,1.7242,1.7241,1.727,1.73,1.7325,1.7348,1.7369,1.7387,1.7385,1.7409,1.7445,1.7466,1.7506,1.754,1.7569,1.7579,1.7565,1.7564,1.7574,1.7577,1.7576,1.7577,1.7445,1.7561,1.756,1.7559,1.7558,1.7558,1.7317,1.7347,1.7366,1.7399,1.7414,1.7435,1.7463,1.747,1.75,1.7533,1.7528,1.7567,1.7586,1.7624,1.7636,1.7667,1.7651,1.7667,1.7671,1.7675,1.7679,1.7571,1.7672,1.7672,1.7672,1.7671,1.7671,0,1.7419,1.743,1.7461,1.7491,1.7517,1.7502,1.7524,1.7547,1.7582,1.7601,1.7627,1.7668,1.77,1.7709,1.774,1.7763,1.7757,1.7771,1.7769,1.7772,1.7691,1.7679,1.7775,1.7775,1.7775,1.7775,1.7775,1.7775,1.7475,1.7525,1.7526,1.7583,1.7594,1.7633,1.7647,1.7665,1.768,1.7726,1.7753,1.7759,1.7774,1.7805,1.7834,1.7835,1.7847,1.7864,1.7863,1.7788,1.7777,1.7767,1.7756,1.7867,1.7867,1.7941,1.7942,1.7942]}]]